Temp
10 10 10 10 9 9 9 9 9 9 9 9 9 9 9 9 9 9 9 9 9 9 9 9 9 9 9 9 10 10 10 10 10 10 10 10 10 10 10 10 10 10
10 10 10 10 10 9 9 9 9 9 9 9 9 9 9 9 9 9 9 9 9 9 9 9 9 9 9 9 10 10 10 10 10 10 10 10 10 10 10 10 10 10
10 10 10 10 10 10 9 9 9 9 9 9 9 9 9 9 9 9 9 9 9 9 9 9 9 9 9 10 10 10 10 10 10 10 10 10 10 10 10 10 10 10
10 10 10 10 10 9 9 9 9 9 9 9 9 9 9 9 9 9 9 9 9 9 9 9 9 9 9 10 10 10 10 10 10 10 10 10 10 10 10 10 10 10
10 10 10 10 10 10 9 9 10 10 9 9 9 9 9 9 9 9 9 9 9 9 9 9 9 9 9 9 10 10 10 10 10 10 10 10 10 10 10 10 10 10
10 10 10 10 10 10 10 10 10 10 10 10 10 10 10 10 10 10 10 9 9 9 9 9 9 9 9 9 10 9 9 10 10 10 10 10 10 10 10 10 10 10
10 10 10 10 10 10 10 10 10 10 10 10 10 10 10 10 10 10 10 10 10 9 9 9 9 9 9 9 10 10 10 10 10 10 10 10 10 10 10 10 10 10
10 10 10 10 10 10 10 10 10 10 10 10 10 10 10 10 10 10 10 10 10 10 10 10 9 9 9 9 10 10 10 10 10 10 10 10 10 10 10 10 10 10
10 10 10 10 10 10 10 10 10 10 10 10 10 11 11 11 11 11 10 10 10 10 10 10 10 10 9 9 9 9 9 10 10 10 10 10 9 9 9 10 10 10
10 10 10 10 10 10 10 10 10 10 10 10 10 10 10 10 10 10 11 11 10 10 10 10 10 10 10 10 10 9 9 9 10 10 10 10 10 10 9 9 10 10
10 10 10 10 10 10 10 10 10 10 10 10 10 10 10 10 10 10 10 10 10 10 10 10 10 10 10 10 10 9 9 9 9 10 10 10 10 10 10 10 10 10
10 10 9 9 10 10 9 10 10 10 10 10 10 9 9 9 9 10 10 10 10 10 10 10 10 10 10 10 10 10 9 9 9 9 10 10 10 10 10 10 10 10
10 9 9 9 9 9 9 10 10 10 10 9 9 9 9 9 9 9 9 9 9 9 9 10 10 10 10 10 10 10 10 10 10 9 10 10 10 10 10 10 10 10
9 9 9 9 9 9 9 9 10 9 9 9 9 9 9 9 9 9 9 9 9 9 9 9 9 9 9 10 10 10 10 10 10 9 10 10 10 10 10 10 10 10
9 9 9 9 9 9 9 9 9 9 9 9 9 9 9 9 9 9 9 9 10 10 10 9 9 9 9 9 10 10 10 10 10 10 10 10 10 10 10 9 9 9
9 9 9 9 9 9 9 9 9 9 9 9 9 9 9 9 9 9 9 10 10 10 10 9 9 10 9 9 10 10 10 10 10 10 10 10 10 10 10 10 9 9
9 9 9 9 9 9 9 9 9 9 9 9 9 9 9 9 10 10 10 10 10 10 10 10 10 10 10 10 10 10 10 10 10 10 10 10 10 10 10 10 9 9
9 9 9 9 9 9 9 9 9 9 9 9 9 9 9 9 10 10 10 10 10 10 10 10 10 10 10 10 10 10 10 10 10 10 10 10 10 10 10 10 9 9
9 9 9 9 9 9 9 9 9 9 9 9 9 9 9 9 10 10 10 10 10 10 10 10 10 10 10 10 10 10 10 10 10 10 10 9 10 10 9 9 9 9
8 9 9 9 9 9 9 9 9 9 9 9 9 9 9 9 10 10 10 10 10 10 10 10 10 10 10 10 10 10 10 10 10 10 9 9 9 9 9 9 9 9
8 8 8 9 9 9 9 9 9 9 9 9 9 9 9 9 10 10 10 10 10 9 9 9 10 10 10 10 10 10 10 10 10 10 9 9 9 9 9 9 9 9
8 8 8 8 9 9 9 9 9 8 8 9 9 9 9 9 9 9 9 10 9 9 9 9 9 9 9 10 10 10 9 9 9 9 9 9 9 9 9 9 9 9
8 8 8 8 8 8 8 8 8 8 8 8 9 9 9 9 9 9 9 9 9 9 9 9 9 9 9 9 9 9 9 9 9 9 9 9 9 9 9 8 8 9
8 8 8 8 8 8 8 8 8 8 8 8 9 9 9 9 9 9 9 9 9 9 9 9 9 9 9 9 9 9 9 9 9 9 9 9 9 9 8 8 8 8
8 8 8 8 8 8 8 8 8 8 8 9 9 9 9 9 9 9 9 9 9 9 9 8 8 8 9 9 9 9 9 9 9 9 9 9 9 8 8 8 8 8
8 8 8 8 8 8 8 8 8 8 9 9 9 9 9 9 9 9 9 9 9 9 9 8 8 8 9 9 9 9 9 9 9 9 9 9 9 9 9 8 8 8
Height
3206 3207 3208 3210 3211 3212 3213 3214 3215 3216 3216 3217 3218 3218 3219 3220 3220 3221 3222 3222 3223 3224 3225 3226 3227 3228 3229 3230 3230 3231 3232 3232 3233 3233 3233 3233 3233 3233 3233 3233 3233 3233
3206 3207 3208 3209 3210 3211 3212 3213 3214 3215 3216 3216 3217 3218 3218 3219 3220 3220 3221 3222 3222 3223 3224 3225 3226 3227 3228 3229 3229 3230 3231 3231 3231 3232 3232 3232 3232 3232 3232 3231 3231 3231
3205 3206 3207 3208 3209 3210 3211 3212 3213 3214 3215 3215 3216 3217 3218 3219 3219 3220 3221 3221 3222 3223 3223 3224 3225 3226 3227 3227 3228 3229 3229 3230 3230 3231 3231 3231 3231 3230 3230 3230 3230 3229
3204 3205 3206 3207 3208 3209 3210 3210 3211 3212 3213 3214 3215 3216 3217 3218 3219 3219 3220 3221 3221 3222 3223 3224 3224 3225 3226 3226 3227 3228 3228 3229 3229 3229 3229 3229 3229 3229 3229 3228 3228 3228
3202 3203 3205 3206 3207 3208 3209 3209 3210 3211 3212 3213 3214 3215 3216 3217 3218 3218 3219 3220 3221 3221 3222 3223 3224 3224 3225 3225 3226 3226 3227 3227 3227 3227 3228 3228 3228 3227 3227 3227 3227 3227
3200 3202 3203 3204 3205 3206 3208 3209 3209 3210 3211 3212 3213 3214 3214 3215 3216 3217 3218 3219 3220 3220 3221 3222 3223 3223 3224 3224 3225 3225 3225 3225 3226 3226 3226 3226 3226 3226 3226 3225 3225 3225
3198 3200 3201 3203 3204 3205 3206 3207 3208 3209 3210 3211 3212 3213 3213 3214 3215 3216 3217 3217 3218 3219 3220 3220 3221 3222 3222 3223 3223 3223 3224 3224 3224 3224 3224 3224 3224 3224 3224 3224 3224 3223
3197 3198 3199 3200 3201 3203 3204 3206 3207 3208 3209 3210 3210 3211 3212 3213 3214 3215 3215 3216 3217 3217 3218 3219 3220 3220 3221 3221 3221 3222 3222 3222 3223 3223 3223 3223 3223 3223 3223 3222 3222 3222
3195 3196 3197 3198 3199 3201 3203 3204 3206 3207 3207 3208 3209 3210 3211 3212 3212 3213 3214 3215 3215 3216 3216 3217 3218 3219 3219 3219 3220 3220 3220 3221 3221 3221 3221 3222 3222 3221 3221 3221 3220 3220
3193 3195 3196 3197 3198 3200 3201 3203 3204 3205 3206 3207 3208 3209 3210 3211 3211 3212 3212 3213 3214 3214 3215 3215 3216 3217 3217 3218 3218 3218 3219 3219 3219 3219 3219 3220 3220 3220 3220 3219 3219 3219
3191 3192 3194 3195 3197 3198 3199 3200 3202 3203 3204 3205 3206 3207 3208 3209 3209 3210 3210 3211 3212 3213 3213 3214 3214 3215 3215 3215 3216 3216 3217 3217 3217 3217 3217 3217 3218 3218 3217 3217 3218 3218
3189 3190 3192 3193 3194 3196 3197 3198 3199 3201 3202 3203 3204 3205 3206 3207 3207 3208 3209 3209 3210 3211 3212 3212 3213 3213 3213 3214 3214 3213 3214 3214 3215 3215 3215 3215 3215 3215 3216 3216 3216 3216
3188 3189 3190 3191 3192 3194 3195 3196 3197 3199 3200 3201 3201 3202 3203 3204 3205 3206 3207 3207 3208 3208 3209 3209 3210 3211 3212 3212 3212 3212 3211 3211 3211 3212 3213 3213 3213 3213 3213 3214 3214 3213
3185 3186 3187 3189 3191 3192 3193 3194 3195 3196 3197 3198 3199 3200 3201 3202 3203 3203 3204 3205 3205 3206 3206 3207 3208 3208 3209 3209 3210 3211 3210 3209 3208 3208 3209 3210 3210 3210 3211 3211 3211 3210
3180 3183 3185 3187 3189 3190 3191 3192 3193 3194 3195 3196 3197 3198 3199 3200 3200 3201 3201 3202 3203 3203 3204 3205 3205 3206 3206 3206 3207 3209 3209 3208 3207 3206 3205 3206 3206 3207 3207 3208 3208 3208
3180 3182 3184 3185 3187 3188 3189 3189 3190 3191 3192 3193 3194 3195 3196 3197 3198 3198 3199 3199 3200 3200 3200 3201 3202 3203 3203 3203 3204 3205 3205 3206 3205 3203 3202 3202 3203 3203 3204 3204 3204 3204
3179 3181 3182 3183 3184 3185 3186 3187 3188 3189 3190 3190 3191 3192 3193 3194 3195 3196 3196 3196 3196 3197 3197 3198 3199 3199 3200 3200 3200 3201 3202 3202 3202 3200 3199 3199 3199 3200 3201 3201 3200 3200
3175 3177 3179 3181 3183 3184 3184 3185 3185 3186 3187 3188 3189 3189 3190 3190 3191 3192 3192 3192 3193 3194 3194 3194 3194 3195 3196 3196 3196 3197 3198 3198 3199 3198 3197 3197 3197 3197 3197 3197 3197 3197
3173 3174 3176 3178 3179 3181 3182 3182 3183 3184 3185 3185 3186 3187 3188 3188 3188 3188 3189 3189 3190 3191 3190 3190 3190 3191 3192 3192 3193 3193 3193 3194 3194 3194 3194 3194 3195 3195 3195 3195 3194 3193
3168 3170 3172 3174 3175 3177 3178 3179 3180 3181 3182 3183 3184 3185 3185 3185 3185 3185 3186 3187 3187 3186 3185 3186 3187 3188 3188 3188 3189 3189 3190 3190 3190 3190 3190 3191 3191 3191 3192 3192 3191 3190
3164 3165 3166 3169 3171 3173 3175 3176 3177 3178 3179 3180 3181 3182 3182 3182 3182 3182 3182 3183 3182 3181 3181 3182 3183 3184 3184 3185 3185 3185 3186 3185 3186 3186 3186 3186 3187 3188 3188 3188 3188 3187
3161 3161 3162 3164 3167 3170 3172 3173 3174 3175 3176 3177 3178 3179 3179 3179 3179 3179 3179 3179 3178 3177 3177 3178 3179 3179 3180 3180 3180 3180 3181 3181 3181 3181 3181 3182 3183 3182 3182 3183 3184 3184
3159 3159 3159 3161 3163 3166 3167 3169 3171 3172 3173 3173 3175 3176 3176 3176 3176 3176 3175 3175 3175 3174 3174 3174 3174 3175 3176 3176 3176 3176 3176 3176 3176 3176 3177 3177 3177 3177 3179 3181 3181 3181
3159 3159 3159 3160 3162 3163 3165 3167 3169 3170 3171 3171 3172 3173 3173 3173 3173 3173 3173 3172 3172 3171 3170 3170 3171 3171 3172 3172 3172 3172 3172 3172 3172 3172 3173 3173 3173 3175 3178 3179 3177 3177
3159 3160 3161 3162 3162 3163 3164 3166 3167 3168 3169 3170 3171 3171 3171 3171 3170 3170 3170 3169 3169 3168 3167 3167 3167 3168 3168 3168 3168 3169 3169 3169 3169 3169 3169 3168 3168 3170 3173 3173 3171 3172
3160 3161 3161 3162 3162 3163 3164 3165 3166 3167 3168 3169 3169 3169 3169 3169 3168 3168 3167 3167 3166 3166 3165 3165 3165 3165 3165 3165 3165 3165 3166 3166 3165 3165 3164 3164 3163 3162 3165 3166 3166 3166
Wind_Speed
10 10 10 10 10 9 9 9 10 10 10 10 9 9 9 10 10 10 11 11 12 12 13 13 12 11 11 12 11 11 10 10 10 10 9 10 10 10 10 10 11 11
9 10 11 12 11 11 10 10 10 11 11 11 10 10 10 10 10 10 11 11 12 13 14 14 13 12 12 12 11 11 11 11 11 11 11 11 11 11 11 11 11 11
10 10 11 12 12 12 11 11 11 11 12 11 11 11 10 10 9 9 10 11 11 12 13 14 14 14 13 13 12 12 12 12 12 12 12 12 13 13 12 12 12 12
11 10 11 12 13 13 13 13 12 12 13 13 12 11 11 11 11 10 10 11 11 11 12 13 14 14 13 13 13 12 12 12 13 13 13 13 13 13 13 13 12 12
13 12 11 12 12 13 14 14 13 13 14 14 13 13 12 12 12 12 11 11 11 11 12 12 13 13 13 13 13 13 13 12 12 13 13 12 13 12 12 12 12 12
15 14 13 12 12 13 13 13 13 14 14 15 15 14 13 13 13 12 12 12 12 12 12 12 12 13 13 13 13 12 13 12 12 12 12 11 12 12 12 12 13 13
16 16 15 14 14 13 13 13 14 15 15 16 16 15 15 14 14 13 13 13 13 13 13 13 13 13 13 13 12 12 12 12 12 12 11 12 12 12 13 13 13 13
17 18 18 18 17 16 15 15 15 15 16 17 17 16 16 16 15 15 15 14 14 13 14 14 14 14 14 13 12 12 13 13 12 12 12 12 13 13 13 14 14 14
18 18 18 19 19 18 16 15 15 15 15 16 16 16 16 16 16 16 16 17 16 15 15 14 14 14 14 14 13 12 12 13 13 13 12 12 13 13 13 14 14 14
18 18 18 18 18 17 17 17 17 16 16 16 16 16 16 16 15 15 16 16 16 16 16 15 15 14 14 14 13 13 13 14 14 13 13 13 13 14 15 15 15 14
18 19 18 17 17 17 17 18 18 18 18 17 17 17 17 16 16 16 16 16 16 16 16 16 16 16 16 16 15 15 15 16 16 15 15 15 15 15 16 16 15 13
19 19 18 18 18 18 18 19 19 19 19 18 18 18 17 17 17 18 17 17 17 17 17 17 17 18 18 18 18 18 18 18 18 17 17 17 17 17 16 15 14 14
19 18 19 19 19 19 19 20 19 19 19 19 19 19 19 18 18 19 19 18 18 19 19 18 18 18 19 20 20 20 19 18 18 18 18 18 18 17 17 15 16 16
19 19 20 20 19 20 20 20 20 19 20 20 20 20 19 19 19 20 20 19 18 19 19 19 19 20 20 21 22 23 22 20 18 17 17 17 17 17 17 16 17 17
21 21 21 21 21 21 21 21 20 19 19 19 19 19 19 19 20 21 21 20 19 18 19 19 20 21 20 20 21 23 25 25 21 17 18 19 18 18 17 16 17 18
19 19 21 22 22 22 22 21 20 18 17 17 17 17 18 19 20 21 21 21 21 20 20 20 20 20 20 19 20 22 25 24 21 18 19 20 20 19 18 18 18 19
20 22 23 23 23 23 23 21 20 18 18 18 19 19 19 19 20 20 20 21 22 22 21 21 21 21 21 20 21 22 22 23 23 21 19 20 20 20 20 20 20 20
24 26 26 25 25 25 25 23 21 20 20 21 21 20 20 20 20 21 21 21 22 22 23 23 23 22 22 22 22 22 22 24 25 22 20 20 21 21 22 22 22 23
26 27 27 28 29 29 28 27 24 23 23 23 23 22 21 21 22 22 23 23 22 23 25 26 25 24 24 24 25 25 26 27 26 23 23 23 24 24 24 24 24 25
27 27 28 31 32 32 32 30 27 25 25 24 24 23 23 23 24 25 25 25 25 26 28 28 27 27 26 27 27 28 30 30 29 27 26 27 27 27 27 27 26 26
25 27 29 32 33 34 33 32 29 27 26 26 25 24 24 25 26 28 28 28 29 30 30 30 30 30 29 29 30 30 31 32 32 31 30 30 30 30 30 29 29 29
18 24 29 31 31 32 32 32 31 28 26 24 24 24 25 25 27 29 29 30 31 31 31 32 33 33 32 32 32 32 32 32 33 33 33 33 33 33 33 32 30 30
9 14 20 24 26 27 29 29 28 26 23 21 21 21 22 22 24 26 27 29 30 31 32 34 35 35 34 33 33 33 33 33 34 34 35 36 36 36 34 32 32 32
2 3 7 11 14 17 18 18 18 17 15 14 14 15 15 16 18 19 20 22 24 27 30 32 33 34 35 35 35 34 34 34 34 35 36 37 38 37 35 33 34 33
4 4 5 8 9 9 10 9 9 9 8 9 11 13 14 14 15 15 16 16 17 19 21 23 24 26 28 31 33 33 34 35 36 37 37 37 37 37 36 36 38 35
6 6 6 7 8 8 9 7 5 6 7 9 12 13 14 14 14 14 14 14 15 16 18 18 18 17 18 20 23 25 27 28 28 31 34 34 35 37 36 35 36 35
Wind_Direction
207 202 202 202 203 209 212 209 207 202 199 202 202 203 205 208 210 211 209 208 207 207 206 208 213 216 219 223 224 225 227 233 235 236 239 243 248 252 253 255 256 260
209 202 199 203 202 204 211 213 212 209 205 202 203 207 210 213 213 213 213 211 209 208 208 210 215 220 223 227 230 230 232 237 240 241 244 248 252 255 257 259 260 262
210 204 200 205 205 204 208 212 213 212 211 207 205 209 213 214 216 215 214 213 211 212 214 216 220 224 228 232 236 238 238 241 243 245 248 250 254 255 256 257 259 261
210 208 202 204 208 208 208 211 212 210 211 211 209 210 212 213 216 217 215 215 215 215 217 221 225 229 234 238 242 244 244 246 247 250 252 252 254 255 254 255 256 259
208 210 208 205 207 210 210 211 212 210 210 211 211 213 214 215 215 216 216 217 219 220 220 223 227 231 235 239 242 245 247 248 249 251 252 250 251 252 253 254 255 258
204 207 212 211 209 210 210 210 212 212 212 211 212 215 216 217 218 219 219 218 218 222 225 229 231 233 236 238 240 242 245 248 249 250 251 250 250 250 252 255 256 257
204 203 207 212 214 213 210 210 211 212 213 213 214 216 216 218 220 221 223 222 219 218 221 227 232 235 238 239 240 241 244 247 248 249 250 250 251 251 251 254 255 256
208 204 204 208 213 215 213 212 213 212 213 216 217 218 218 219 219 219 221 225 228 226 223 222 224 229 234 238 241 243 245 247 247 247 249 250 252 253 254 255 256 256
212 211 208 209 212 215 217 218 219 220 218 219 221 224 225 224 222 219 218 221 227 231 233 231 228 228 230 233 236 241 247 251 251 249 249 249 250 253 255 256 256 255
211 215 214 215 215 216 218 219 221 224 226 225 225 226 229 230 230 229 227 224 223 224 229 235 237 236 236 237 238 241 245 248 251 253 253 251 249 249 250 252 254 256
209 213 216 217 218 218 220 221 221 224 228 231 232 232 232 232 234 236 238 238 236 232 230 232 235 238 240 240 240 239 241 244 247 250 252 254 252 249 248 251 256 262
212 211 214 217 219 221 223 226 227 228 229 232 237 241 240 238 239 240 241 243 245 246 245 242 240 243 245 245 241 236 234 238 243 246 247 250 254 255 254 254 256 259
216 213 214 216 219 222 226 230 233 233 233 234 238 242 243 242 244 246 248 248 247 248 250 251 251 254 255 254 252 246 239 234 238 245 250 252 257 262 263 262 261 261
216 216 216 218 220 222 227 232 235 234 235 236 238 240 243 245 245 247 250 252 251 249 252 256 258 259 260 260 260 260 255 246 238 240 249 254 257 261 263 264 264 266
217 219 218 220 223 225 228 232 235 235 233 233 235 238 240 243 245 247 249 251 251 250 252 256 257 257 258 259 259 260 260 256 248 244 248 254 256 257 257 257 258 263
229 227 224 224 226 229 233 236 238 238 235 235 238 241 241 240 241 245 246 246 247 248 249 252 254 255 253 251 251 253 256 256 253 248 248 253 257 257 256 255 256 258
238 234 231 232 234 234 236 238 239 239 239 240 242 245 246 246 247 248 246 243 242 244 247 250 252 253 250 245 246 250 254 258 258 254 250 253 256 255 254 253 254 254
244 241 240 242 243 241 239 237 237 239 240 242 243 244 247 250 252 253 252 249 246 245 248 251 252 253 253 251 250 250 252 258 262 262 262 261 260 259 256 253 253 254
242 241 243 246 248 247 243 239 238 240 242 243 245 245 247 250 253 254 255 255 254 253 253 254 255 257 258 257 255 253 254 256 258 260 262 264 264 262 260 257 257 257
244 241 242 246 249 250 247 241 237 238 241 244 245 247 250 253 254 255 256 256 257 257 255 254 255 256 256 256 256 255 255 256 258 258 258 259 261 263 263 261 259 259
246 241 239 240 243 247 247 243 238 235 237 241 244 247 251 255 257 257 257 257 257 257 256 254 252 251 252 254 255 255 255 256 259 259 258 258 260 261 261 260 258 258
249 241 235 233 234 237 240 241 239 235 233 237 242 248 251 252 254 256 256 257 256 255 256 255 252 251 252 253 255 257 257 257 259 259 259 259 259 258 257 257 257 257
259 244 236 233 231 231 234 237 237 234 232 235 240 247 251 253 255 257 258 259 258 257 257 257 256 255 253 253 253 255 257 257 259 260 260 259 258 258 258 258 258 258
231 206 211 213 214 218 223 226 227 230 235 240 243 248 254 257 261 262 263 263 263 262 261 261 260 258 256 254 254 254 256 257 258 259 260 261 261 263 263 262 262 262
191 168 159 161 171 186 195 201 213 224 232 240 246 251 256 261 266 269 270 270 270 269 268 267 267 266 264 261 260 259 260 262 262 262 262 263 265 265 263 260 260 261
203 200 191 177 172 177 179 183 211 239 244 248 253 256 258 263 268 273 275 276 275 274 273 273 275 277 276 273 270 267 265 269 274 271 265 265 270 271 267 263 260 260